Regional Weather Roundup
Issued by NWS

Home | Current Version | Previous Version | Text Only | Print | Product List | Glossary Off
Versions: 1 2 3 4 5 6 7 8 9 10 11 12 13 14 15 16 17 18 19 20 21 22 23 24 25 26 27 28 29 30 31 32 33 34 35 36 37 38 39 40 41 42 43 44 45 46 47 48 49 50

000
ASUS45 KBOU 032007
RWRCO

WEATHER ROUNDUP FOR COLORADO
NATIONAL WEATHER SERVICE DENVER/BOULDER CO
100 PM MST TUE MAR 03 2015

NOTE: "FAIR" INDICATES FEW OR NO CLOUDS BELOW 12000 FEET WITH NO
SIGNIFICANT WEATHER AND/OR OBSTRUCTIONS TO VISIBILITY.

COZ001>005-013-030-031-032100-
...NORTHWEST COLORADO...

CITY           SKY/WX    TMP DP  RH WIND       PRES   REMARKS
CRAIG            N/A    N/A N/A N/A MISG      29.70F
HAYDEN         CLOUDY    28  23  80 W9        29.69F WCI  20
MEEKER         PTSUNNY   38  21  50 SW20G29   29.69F
MOUNT WERNER   NOT AVBL
STEAMBOAT SPGS CLOUDY    32  21  65 SW6       29.68F WCI  26
WALDEN         PTSUNNY   30  16  55 W17G23    29.65F WCI  18
$$

COZ006>008-011-032100-
...WEST CENTRAL VALLEYS...

CITY           SKY/WX    TMP DP  RH WIND       PRES   REMARKS
GRAND JUNCTION CLOUDY    40  28  62 CALM      29.76F
MONTROSE       PTSUNNY   38  26  62 SW18G26   29.78F
EAGLE          FLURRIES  34  27  75 SW14G22   29.75  WCI  24
RIFLE          LGT SNOW  37  29  72 SW13      29.73F
DELTA          CLOUDY    44  27  51 SW21      29.77F
NUCLA          CLOUDY    41  28  60 SW16G22   29.83F
$$

COZ017>023-064>068-032100-
...SOUTHWEST COLORADO...

CITY           SKY/WX    TMP DP  RH WIND       PRES   REMARKS
DURANGO        CLOUDY    34  26  72 S9        29.83F WCI  27
CORTEZ         CLOUDY    38  31  76 S6        29.83F
PAGOSA SPRINGS LGT SNOW  32  26  78 SW9       29.83F WCI  24
TELLURIDE      CLOUDY    30  13  49 S8        29.77F WCI  22
WOLF CREEK PAS CLOUDY    12  10  92 MISG      29.78F
$$

COZ009-010-012-014-032>034-037-058>063-032100-
...CENTRAL COLORADO...

CITY           SKY/WX    TMP DP  RH WIND       PRES   REMARKS
ASPEN          PTSUNNY   32  21  64 N7        29.69F WCI  26
BUENA VISTA    CLOUDY    36   8  31 W3        29.68F
COPPER MTN     NOT AVBL
BERTHOUD PASS  LGT SNOW  10   3  72 W13       29.65S VSB 1   WCI  -5
COTTONWOOD PAS CLOUDY    32   7  34 SW16G24   29.69F WCI  21
GUNNISON       FAIR      34  16  47 SW15      29.76F WCI  24
KREMMLING      PTSUNNY   32  23  69 CALM      29.68F
LEADVILLE      CLOUDY    24   7  48 W10G20    29.66S WCI  14
SALIDA         CLOUDY    37  19  47 S14G28    29.78F
SUNLIGHT       CLOUDY    23  21  93 CALM        N/A  FOG
WILKERSON PASS PTSUNNY   28  12  50 S8        29.69F WCI  20
$$

COZ069>075-032100-
...SAN LUIS VALLEY/SANGRE DE CRISTO MOUNTAINS...

CITY           SKY/WX    TMP DP  RH WIND       PRES   REMARKS
ALAMOSA        FAIR      36  22  56 S26G36    29.75
LA VETA PASS   FAIR      34  18  51 S12G21    29.76F WCI  25
SAGUACHE       CLOUDY    36  21  55 S13G22    29.74F
$$

COZ035-036-038>040-032100-
...NORTHERN COLORADO FRONT RANGE...

CITY           SKY/WX    TMP DP  RH WIND       PRES   REMARKS
DENVER INTL AP LGT SNOW  18  14  84 NE14      29.85F WCI   4
DMNS CITY PARK   N/A     19  13  76 NE9       29.85F WCI   8
AURORA         LGT SNOW  18  14  85 NE8       29.84F VSB 1   WCI   8
FRONT RANGE AP CLOUDY    19  16  86 N8        29.85F WCI   9
ERIE MUNI ARPT FLURRIES  22  14  72 E7        29.87F WCI  13
BOULDER MUN AP FLURRIES  21  16  79 E8        29.86S WCI  12
CENTENNIAL     CLOUDY    18  14  84 NE7       29.82F WCI   9
BROOMFIELD     LGT SNOW  19  16  86 NE8       29.85F WCI   9
FORT COLLINS   FAIR      23  12  63 E7        29.88F WCI  15
LONGMONT       CLOUDY    29  15  56 NE8       29.89S WCI  21
$$

COZ041-046-047-076>085-087-088-032100-
...PIKES PEAK/PALMER DIVIDE AND SOUTHERN FOOTHILLS...

CITY           SKY/WX    TMP DP  RH WIND       PRES   REMARKS
COLO. SPRINGS  PTSUNNY   29  19  66 NE10      29.79S WCI  20
A. F. ACADEMY  CLOUDY    23  17  75 N7        29.77F WCI  15
ELLICOTT       NOT AVBL
FALCON         CLOUDY    26  18  72 NE13      29.77F WCI  15
FORT CARSON    NOT AVBL
LIMON          NOT AVBL
MONUMENT HILL  CLOUDY    19  16  86 NE8       29.75F WCI   9
TRINIDAD       FAIR      42  33  70 NE24G36   29.72F
$$

COZ042>045-048>051-090-091-032100-
...NORTHEAST COLORADO...

CITY           SKY/WX    TMP DP  RH WIND       PRES   REMARKS
GREELEY ARPT   PTSUNNY   25  10  54 E9G16     29.87F WCI  15
AKRON          CLOUDY    25  11  55 N17G29    29.87F WCI  12
BURLINGTON     CLOUDY    25  16  68 N14G23    29.89R WCI  13
WRAY           CLOUDY    30  13  48 N17G23    29.92F WCI  19
STERLING       CLOUDY    28  12  50 N14G20    29.91F WCI  17
HOLYOKE        NOT AVBL
FORT MORGAN    FLURRIES  24  13  63 NE9       29.90F WCI  14
$$

COZ086-089-092>099-032100-
...SOUTHEAST COLORADO...

CITY           SKY/WX    TMP DP  RH WIND       PRES   REMARKS
PUEBLO         CLOUDY    36  25  64 E18       29.81F
LA JUNTA       CLOUDY    33  27  78 NE23      29.84F WCI  21
LAMAR          CLOUDY    33  27  78 NE22G30   29.85F WCI  21
SPRINGFIELD      N/A     33  29  85 NE16G26   29.81F WCI  23
$$



USA.gov is the U.S. government's official web portal to all federal, state and local government web resources and services.